DW1735 Weather Reports


time (UTC)temp
F
wind
direction
speed
knots
gust
knots
rain 1hr
in
rain 24hr
in
rain mn
in
humidity
%
barometer
mb
20260507062548 51 193 5.2 9.6 0.00 0.00 0.00 91 1020.6
20260507062049 51 180 6.1 9.6 0.00 0.00 0.00 91 1020.6
20260507061552 51 197 5.2 9.6 0.00 0.00 0.00 90 1020.7
20260507061048 51 239 4.3 7.8 0.00 0.00 0.00 90 1020.6
20260507060548 51 205 3.5 7.8 0.00 0.00 0.00 90 1020.6
20260507060052 51 175 4.3 7.8 0.00 0.00 0.00 90 1020.6
20260507055549 51 214 4.3 8.7 0.00 0.00 0.00 90 1020.6
20260507055049 51 180 3.5 8.7 0.00 0.00 0.00 90 1020.6
20260507054557 51 200 3.5 7.8 0.00 0.00 0.00 90 1020.6
20260507054048 52 216 2.6 8.7 0.00 0.00 0.00 90 1020.6
20260507053548 52 204 4.3 11.3 0.00 0.00 0.00 90 1020.5
20260507053055 52 226 5.2 11.3 0.00 0.00 0.00 90 1020.5
20260507052550 52 218 5.2 9.6 0.00 0.00 0.00 89 1020.6
20260507052048 52 211 6.1 9.6 0.00 0.00 0.00 89 1020.6
20260507051553 52 229 6.1 9.6 0.00 0.00 0.00 89 1020.6
20260507051049 52 216 4.3 7.0 0.00 0.00 0.00 88 1020.5
20260507050550 52 215 3.5 6.1 0.00 0.00 0.00 88 1020.6
20260507050053 53 175 3.5 6.1 0.00 0.00 0.00 87 1020.6
20260507045549 53 218 3.5 7.0 0.00 0.00 0.00 87 1020.6
20260507045049 53 208 2.6 7.8 0.00 0.00 0.00 87 1020.6
20260507044556 53 245 2.6 7.8 0.00 0.00 0.00 87 1020.7
20260507044048 53 211 3.5 7.8 0.00 0.00 0.00 86 1020.7
20260507043548 53 243 2.6 6.1 0.00 0.00 0.00 86 1020.6
20260507043053 53 185 1.7 7.8 0.00 0.00 0.00 85 1020.6
20260507042550 53 247 2.6 7.8 0.00 0.00 0.00 85 1020.6
20260507042049 53 229 4.3 7.8 0.00 0.00 0.00 85 1020.5
20260507041553 53 249 1.7 5.2 0.00 0.00 0.00 85 1020.6
20260507041050 53 223 2.6 5.2 0.00 0.00 0.00 85 1020.5
20260507040549 53 226 1.7 5.2 0.00 0.00 0.00 85 1020.5
20260507040055 53 221 1.7 3.5 0.00 0.00 0.00 85 1020.5
20260507035549 53 235 1.7 5.2 0.00 0.00 0.00 85 1020.5
20260507035049 53 242 1.7 5.2 0.00 0.00 0.00 85 1020.4
20260507034552 53 227 2.6 8.7 0.00 0.00 0.00 85 1020.4
20260507034049 53 189 2.6 8.7 0.00 0.00 0.00 85 1020.3
20260507033549 54 238 3.5 8.7 0.00 0.00 0.00 84 1020.3
20260507033050 54 254 3.5 8.7 0.00 0.00 0.00 84 1020.3
20260507032548 54 246 4.3 9.6 0.00 0.00 0.00 84 1020.2
20260507032048 54 258 4.3 9.6 0.00 0.00 0.00 83 1020.2
20260507031551 54 276 4.3 9.6 0.00 0.00 0.00 83 1020.1
20260507031051 54 260 3.5 10.4 0.00 0.00 0.00 83 1020.2
20260507030549 54 239 5.2 10.4 0.00 0.00 0.00 83 1020.0
20260507030057 54 239 4.3 12.2 0.00 0.00 0.00 83 1020.0
20260507025549 54 223 3.5 12.2 0.00 0.00 0.00 82 1020.0
20260507025048 54 274 7.0 12.2 0.00 0.00 0.00 82 1019.9
20260507024612 55 205 5.2 9.6 0.00 0.00 0.00 82 1019.9
20260507024053 55 231 3.5 11.3 0.00 0.00 0.00 82 1019.9
20260507023552 55 240 5.2 11.3 0.00 0.00 0.00 81 1019.9
20260507023054 55 247 7.8 11.3 0.00 0.00 0.00 81 1019.9
20260507022549 55 268 4.3 8.7 0.00 0.00 0.00 81 1019.9
20260507022049 55 228 3.5 10.4 0.00 0.00 0.00 81 1019.8
20260507021612 55 250 5.2 10.4 0.00 0.00 0.00 80 1019.8
20260507021049 55 229 3.5 9.6 0.00 0.00 0.00 80 1019.7
20260507020549 55 211 4.3 7.8 0.00 0.00 0.00 80 1019.7
20260507015548 55 214 4.3 9.6 0.00 0.00 0.00 81 1019.9
20260507015052 55 214 4.3 10.4 0.00 0.00 0.00 80 1019.8
20260507014611 55 214 4.3 10.4 0.00 0.00 0.00 80 1019.8
20260507014047 56 202 6.1 10.4 0.00 0.00 0.00 80 1019.9
20260507013548 56 235 6.1 10.4 0.00 0.00 0.00 80 1019.8
20260507013055 56 234 4.3 7.8 0.00 0.00 0.00 80 1019.8
20260507012550 56 244 4.3 9.6 0.00 0.00 0.00 80 1019.9
20260507012049 56 215 4.3 9.6 0.00 0.00 0.00 80 1019.9
20260507011551 56 262 4.3 10.4 0.00 0.00 0.00 80 1019.8
20260507011048 56 231 5.2 13.9 0.00 0.00 0.00 80 1019.9
20260507010552 56 250 6.1 13.9 0.00 0.00 0.00 80 1019.8
20260507010105 56 259 6.1 13.9 0.00 0.00 0.00 80 1019.9
20260507005549 56 218 5.2 10.4 0.00 0.00 0.00 80 1019.9
20260507005050 56 251 5.2 11.3 0.00 0.00 0.00 80 1019.9
20260507004554 56 251 4.3 11.3 0.00 0.00 0.00 80 1020.0
20260507004049 56 222 4.3 10.4 0.00 0.00 0.00 80 1020.0
20260507003549 56 272 5.2 11.3 0.00 0.00 0.00 80 1020.0
20260507003052 56 249 4.3 11.3 0.00 0.00 0.00 80 1019.9
20260507002549 56 244 7.8 11.3 0.00 0.00 0.00 80 1020.0
20260507002050 56 247 5.2 11.3 0.00 0.00 0.00 80 1019.9
20260507001553 56 203 6.1 11.3 0.00 0.00 0.00 80 1020.0
20260507001048 56 241 7.0 11.3 0.00 0.00 0.00 79 1020.0
20260507000548 56 247 4.3 9.6 0.00 0.00 0.00 80 1019.9
20260507000053 56 258 5.2 11.3 0.00 0.00 0.00 80 1020.0
20260506235549 56 241 6.1 13.9 0.00 0.00 0.00 80 1020.0
20260506235049 56 236 6.1 13.9 0.00 0.00 0.00 80 1020.0
20260506234553 56 243 5.2 13.9 0.00 0.00 0.00 79 1019.9
20260506234049 56 220 8.7 13.9 0.00 0.00 0.00 79 1020.0
20260506233549 56 260 5.2 13.0 0.00 0.00 0.00 79 1019.9
20260506233052 56 237 6.1 13.0 0.00 0.00 0.00 79 1020.0
20260506232548 56 270 7.8 13.0 0.00 0.00 0.00 79 1020.0
20260506232049 56 210 7.8 13.9 0.00 0.00 0.00 79 1020.0
20260506231551 56 243 8.7 13.9 0.00 0.00 0.00 78 1020.1
20260506231052 56 221 7.8 13.9 0.00 0.00 0.00 79 1020.1
20260506230552 56 258 8.7 13.9 0.00 0.00 0.00 78 1020.1
20260506230100 56 249 7.0 13.0 0.00 0.00 0.00 78 1020.1
20260506225549 56 249 7.0 13.0 0.00 0.00 0.00 78 1020.0
20260506225049 56 246 7.0 13.0 0.00 0.00 0.00 78 1020.1
20260506224556 56 235 6.1 13.0 0.00 0.00 0.00 78 1020.1
20260506224049 56 207 7.0 13.0 0.00 0.00 0.00 78 1020.1
20260506223548 57 225 7.0 12.2 0.00 0.00 0.00 77 1020.1
20260506223054 56 213 7.0 12.2 0.00 0.00 0.00 78 1020.2
20260506222548 57 243 6.1 11.3 0.00 0.00 0.00 78 1020.2
20260506222048 56 241 7.0 11.3 0.00 0.00 0.00 78 1020.2
20260506221553 56 236 5.2 10.4 0.00 0.00 0.00 79 1020.3
20260506221049 56 180 6.1 11.3 0.00 0.00 0.00 78 1020.3
20260506220549 56 234 4.3 11.3 0.00 0.00 0.00 79 1020.4
20260506220053 56 199 6.1 13.0 0.00 0.00 0.00 77 1020.2
20260506215552 56 287 5.2 13.0 0.00 0.00 0.00 78 1020.3
20260506215048 56 258 7.0 11.3 0.00 0.00 0.00 78 1020.2
20260506214551 56 243 5.2 9.6 0.00 0.00 0.00 79 1020.4
20260506214049 56 262 3.5 8.7 0.00 0.00 0.00 78 1020.4
20260506213548 56 218 4.3 8.7 0.00 0.00 0.00 79 1020.4
20260506213056 56 237 3.5 9.6 0.00 0.00 0.00 79 1020.4
20260506212551 56 251 4.3 9.6 0.00 0.00 0.00 78 1020.4
20260506212051 56 249 6.1 12.2 0.00 0.00 0.00 79 1020.4
20260506211555 56 251 7.0 14.8 0.00 0.00 0.00 79 1020.5
20260506211049 55 280 7.0 14.8 0.00 0.00 0.00 79 1020.4
20260506210549 56 199 7.8 12.2 0.00 0.00 0.00 79 1020.4
20260506210057 56 239 6.1 10.4 0.00 0.00 0.00 79 1020.4
20260506205549 56 233 7.0 10.4 0.00 0.00 0.00 79 1020.3
20260506205049 56 240 4.3 11.3 0.00 0.00 0.00 79 1020.3
20260506204559 56 257 4.3 11.3 0.00 0.00 0.00 79 1020.3
20260506204048 55 244 7.0 10.4 0.00 0.00 0.00 79 1020.3
20260506203548 56 245 5.2 11.3 0.00 0.00 0.00 79 1020.2
20260506203056 55 260 6.1 11.3 0.00 0.00 0.00 79 1020.3
20260506202549 56 222 4.3 8.7 0.00 0.00 0.00 80 1020.2
20260506202049 56 235 5.2 8.7 0.00 0.00 0.00 80 1020.2
20260506201630 56 209 3.5 7.8 0.00 0.00 0.00 80 1020.2
20260506201048 56 217 4.3 7.8 0.00 0.00 0.00 80 1020.2
20260506200548 56 211 4.3 7.8 0.00 0.00 0.00 80 1020.1
20260506200052 55 238 2.6 5.2 0.00 0.00 0.00 80 1020.1
20260506195549 55 243 3.5 7.8 0.00 0.00 0.00 80 1020.1
20260506195052 55 231 3.5 7.8 0.00 0.00 0.00 80 1020.0
20260506194600 55 246 3.5 10.4 0.00 0.00 0.00 81 1020.1
20260506194048 55 216 3.5 10.4 0.00 0.00 0.00 80 1020.0
20260506193550 55 221 4.3 9.6 0.00 0.00 0.00 81 1020.0
20260506192548 55 185 6.1 9.6 0.00 0.00 0.00 81 1020.0
20260506192048 55 190 4.3 9.6 0.00 0.00 0.00 81 1019.9
20260506191601 55 214 5.2 9.6 0.00 0.00 0.00 81 1019.9
20260506191049 55 195 7.0 9.6 0.00 0.00 0.00 82 1019.9
20260506190550 55 212 3.5 7.0 0.00 0.00 0.00 83 1019.9
20260506190058 54 193 2.6 7.0 0.00 0.00 0.00 84 1019.9
20260506185548 55 180 2.6 7.0 0.00 0.00 0.00 85 1020.0
20260506185049 54 198 4.3 7.0 0.00 0.00 0.00 85 1019.9
20260506184603 54 207 3.5 7.0 0.00 0.00 0.00 85 1020.0
20260506184049 54 197 3.5 7.8 0.00 0.00 0.00 85 1020.0
20260506183549 54 244 2.6 7.8 0.00 0.00 0.00 86 1020.0
20260506183054 54 214 3.5 7.8 0.00 0.00 0.00 86 1019.9
20260506182551 54 251 3.5 9.6 0.00 0.00 0.00 86 1020.0
20260506182049 54 252 4.3 9.6 0.00 0.00 0.00 86 1020.1
20260506181601 54 230 2.6 7.0 0.00 0.00 0.00 87 1020.0
20260506181049 54 250 4.3 7.8 0.00 0.00 0.00 87 1019.8
20260506180549 54 151 2.6 9.6 0.00 0.00 0.00 89 1019.7
20260506180058 53 189 4.3 9.6 0.00 0.00 0.00 89 1019.6
20260506175550 53 242 6.1 9.6 0.00 0.00 0.00 89 1019.7
20260506175051 53 214 5.2 8.7 0.00 0.00 0.00 89 1019.8
20260506174555 53 224 4.3 8.7 0.00 0.00 0.00 89 1019.7
20260506174049 53 199 3.5 7.0 0.00 0.00 0.00 90 1019.7
20260506173549 53 250 2.6 7.8 0.00 0.00 0.00 90 1019.8
20260506173113 53 237 4.3 7.8 0.00 0.00 0.00 90 1019.8
20260506172549 53 216 4.3 7.8 0.00 0.00 0.00 90 1019.8
20260506172050 53 211 2.6 8.7 0.00 0.00 0.00 90 1019.8
20260506171556 53 256 5.2 8.7 0.00 0.00 0.00 90 1019.8
20260506171049 53 206 5.2 9.6 0.00 0.00 0.00 90 1019.8
20260506170550 53 214 5.2 9.6 0.00 0.00 0.00 91 1019.8
20260506170056 52 237 5.2 9.6 0.00 0.00 0.00 91 1019.8
20260506165549 52 226 6.1 8.7 0.00 0.00 0.00 91 1019.7
20260506165049 52 239 4.3 9.6 0.00 0.00 0.00 92 1019.7
20260506164549 52 229 5.2 10.4 0.00 0.00 0.00 92 1019.6
20260506164049 52 226 6.1 10.4 0.00 0.00 0.00 92 1019.6
20260506163550 52 206 5.2 11.3 0.00 0.00 0.00 93 1019.5
20260506163113 52 216 5.2 11.3 0.00 0.00 0.00 93 1019.4
20260506162549 52 198 5.2 9.6 0.00 0.00 0.00 93 1019.3
20260506162049 52 175 6.1 10.4 0.00 0.00 0.00 93 1019.2
20260506161559 52 222 6.1 10.4 0.00 0.00 0.00 93 1019.2
20260506161049 51 214 6.1 8.7 0.00 0.00 0.00 93 1019.1
20260506160549 51 172 5.2 8.7 0.00 0.00 0.00 93 1019.2
20260506160056 52 185 2.6 7.8 0.00 0.00 0.00 93 1019.2
20260506155548 51 190 4.3 7.8 0.00 0.00 0.00 93 1019.3
20260506155049 51 219 4.3 7.8 0.00 0.00 0.00 93 1019.3
20260506154600 51 234 4.3 7.8 0.00 0.00 0.00 93 1019.5
20260506154049 51 224 3.5 7.0 0.00 0.00 0.00 93 1019.5
20260506153549 51 252 3.5 7.8 0.00 0.00 0.00 93 1019.6
20260506153053 51 235 3.5 7.8 0.00 0.00 0.00 93 1019.4
20260506152549 51 206 3.5 7.0 0.00 0.00 0.00 93 1019.4
20260506152052 51 258 3.5 7.0 0.00 0.00 0.00 93 1019.4
20260506151555 51 203 3.5 7.0 0.00 0.00 0.00 93 1019.4
20260506151049 51 212 4.3 7.0 0.00 0.00 0.00 93 1019.2
20260506150549 51 217 3.5 8.7 0.00 0.00 0.00 93 1019.1
20260506150053 51 205 2.6 8.7 0.00 0.00 0.00 93 1019.3
20260506145551 51 208 3.5 7.8 0.00 0.00 0.00 93 1019.4
20260506145048 51 220 3.5 7.8 0.00 0.00 0.00 93 1019.3
20260506144554 51 237 4.3 7.0 0.00 0.00 0.00 92 1019.4
20260506144049 51 244 3.5 7.0 0.00 0.00 0.00 93 1019.4
20260506143550 51 260 3.5 7.8 0.00 0.00 0.00 92 1019.3
20260506143052 51 231 4.3 7.8 0.00 0.00 0.00 92 1019.2
20260506142549 51 250 2.6 8.7 0.00 0.00 0.00 92 1019.2
20260506142049 51 243 2.6 8.7 0.00 0.00 0.00 92 1019.0
20260506141556 51 235 5.2 7.8 0.00 0.00 0.00 92 1018.9
20260506141050 52 201 3.5 6.1 0.00 0.00 0.00 92 1018.9
20260506140549 52 202 3.5 6.1 0.00 0.00 0.00 92 1019.1
20260506140100 52 239 3.5 7.8 0.00 0.00 0.00 92 1019.1
20260506135549 52 200 3.5 7.8 0.00 0.00 0.00 91 1019.1
20260506135049 52 231 3.5 7.8 0.00 0.00 0.00 91 1019.1
20260506134550 52 209 3.5 10.4 0.00 0.00 0.00 91 1018.9
20260506134049 52 225 3.5 10.4 0.00 0.00 0.00 91 1018.9
20260506133549 52 244 3.5 7.8 0.00 0.00 0.00 91 1019.1
20260506133102 52 235 4.3 7.8 0.00 0.00 0.00 91 1018.9
20260506132549 52 194 3.5 7.8 0.00 0.00 0.00 91 1018.8
20260506132051 52 245 2.6 7.8 0.00 0.00 0.00 91 1018.9
20260506131557 52 222 3.5 7.8 0.00 0.00 0.00 91 1018.8
20260506131049 52 260 4.3 7.8 0.00 0.00 0.00 91 1018.5
20260506130549 52 160 3.5 7.0 0.00 0.00 0.00 91 1018.4
20260506130053 52 212 2.6 5.2 0.00 0.00 0.00 91 1018.6
20260506125548 52 228 2.6 7.0 0.00 0.00 0.00 91 1018.5
20260506125049 52 224 2.6 7.0 0.00 0.00 0.00 91 1018.4
20260506124554 52 226 3.5 7.0 0.00 0.00 0.00 91 1018.5
20260506124048 52 238 3.5 7.0 0.00 0.00 0.00 91 1018.4
20260506123549 52 226 3.5 6.1 0.00 0.00 0.00 91 1018.3
20260506123052 52 226 3.5 8.7 0.00 0.00 0.00 91 1018.3
20260506122549 52 235 4.3 8.7 0.00 0.00 0.00 91 1018.4
20260506122049 52 240 3.5 7.8 0.00 0.00 0.00 91 1018.3
20260506121549 52 215 2.6 7.8 0.00 0.00 0.00 91 1018.3
20260506121049 52 245 3.5 7.8 0.00 0.00 0.00 91 1018.2
20260506120549 52 224 5.2 8.7 0.00 0.00 0.00 91 1018.2
20260506120107 52 206 4.3 8.7 0.00 0.00 0.00 91 1018.3
20260506115549 52 208 4.3 7.8 0.00 0.00 0.00 90 1018.2
20260506115048 52 189 4.3 7.8 0.00 0.00 0.00 90 1018.2
20260506114606 52 197 4.3 9.6 0.00 0.00 0.00 90 1018.0
20260506114048 52 201 3.5 9.6 0.00 0.00 0.00 90 1018.0
20260506113549 52 210 6.1 9.6 0.00 0.00 0.00 90 1018.0
20260506113053 52 244 3.5 8.7 0.00 0.00 0.00 90 1018.0
20260506112550 52 218 3.5 8.7 0.00 0.00 0.00 90 1018.0
20260506112049 52 207 3.5 8.7 0.00 0.00 0.00 90 1018.0
20260506111555 52 243 2.6 8.7 0.00 0.00 0.00 90 1018.0
20260506111049 52 238 4.3 8.7 0.00 0.00 0.00 90 1018.0
20260506110549 52 185 3.5 8.7 0.00 0.00 0.00 89 1018.0
20260506110054 52 234 3.5 7.8 0.00 0.00 0.00 89 1017.9
20260506105551 52 199 3.5 6.1 0.00 0.00 0.00 89 1017.9
20260506105049 52 224 3.5 6.1 0.00 0.00 0.00 89 1017.8
20260506104551 52 212 2.6 6.1 0.00 0.00 0.00 89 1017.8
20260506104049 52 189 1.7 7.0 0.00 0.00 0.00 89 1017.8
20260506103548 52 224 2.6 7.8 0.00 0.00 0.00 89 1017.7
20260506103057 52 253 3.5 7.8 0.00 0.00 0.00 89 1017.7
20260506102549 52 227 3.5 7.8 0.00 0.00 0.00 89 1017.8
20260506102049 52 213 3.5 7.0 0.00 0.00 0.00 89 1017.7
20260506101553 52 233 2.6 5.2 0.00 0.00 0.00 89 1017.6
20260506101049 52 218 2.6 5.2 0.00 0.00 0.00 89 1017.6
20260506100549 52 243 2.6 6.1 0.00 0.00 0.00 89 1017.5
20260506100053 52 224 2.6 6.1 0.00 0.00 0.00 89 1017.5
20260506095549 52 226 3.5 7.0 0.00 0.00 0.00 89 1017.5
20260506095049 52 215 3.5 8.7 0.00 0.00 0.00 89 1017.4
20260506094554 52 243 5.2 8.7 0.00 0.00 0.00 89 1017.3
20260506094049 52 241 5.2 9.6 0.00 0.00 0.00 89 1017.3
20260506093549 52 233 5.2 11.3 0.00 0.00 0.00 89 1017.3
20260506093108 52 228 7.8 11.3 0.00 0.00 0.00 89 1017.4
20260506092549 52 248 7.0 11.3 0.00 0.00 0.00 89 1017.4
20260506092049 52 247 5.2 9.6 0.00 0.00 0.00 89 1017.2
20260506091554 52 204 5.2 8.7 0.00 0.00 0.00 89 1017.2
20260506091049 52 222 6.1 8.7 0.00 0.00 0.00 89 1017.1
20260506090548 52 221 4.3 8.7 0.00 0.00 0.00 89 1017.1
20260506090056 52 218 4.3 8.7 0.00 0.00 0.00 89 1017.1
20260506085549 52 201 4.3 8.7 0.00 0.00 0.00 89 1017.0
20260506085049 52 240 3.5 8.7 0.00 0.00 0.00 89 1016.9
20260506084556 52 234 5.2 8.7 0.00 0.00 0.00 89 1016.9
20260506084049 52 205 4.3 9.6 0.00 0.00 0.00 89 1016.9
20260506083549 52 231 4.3 10.4 0.00 0.00 0.00 89 1016.8
20260506083101 52 233 5.2 12.2 0.00 0.00 0.00 89 1016.8
20260506082548 52 218 7.0 12.2 0.00 0.00 0.00 89 1016.8
20260506082048 52 199 6.1 12.2 0.00 0.00 0.00 89 1016.8
20260506081551 52 224 6.1 12.2 0.00 0.00 0.00 89 1016.8
20260506081048 52 202 5.2 9.6 0.00 0.00 0.00 89 1016.8
20260506080547 52 191 3.5 8.7 0.00 0.00 0.00 89 1016.7
20260506073102 52 195 1.7 4.3 0.00 0.00 0.00 88 1016.5
20260506072549 52 206 2.6 6.1 0.00 0.00 0.00 88 1016.6
20260506072054 53 202 2.6 6.1 0.00 0.00 0.00 88 1016.5
20260506071549 53 197 2.6 7.8 0.00 0.00 0.00 87 1016.4
20260506071048 53 196 2.6 7.8 0.00 0.00 0.00 87 1016.4
20260506070549 53 206 2.6 7.0 0.00 0.00 0.00 87 1016.4